{"data":{"norad_id":63084,"intl_designator":"2025-037H","name":"STARLINK-32908","alt_names":[],"object_type":"PAYLOAD","status":"ACTIVE","operator":null,"country":"US","launch_date":"2025-02-23","launch_site_code":"AFWTR","launch_vehicle":null,"mission":null,"orbit_class":"UNKNOWN","rcs_meters":null,"size_class":null,"mass_kg":null,"dimensions":null,"purposes":["comms"],"wikipedia_slug":null,"has_3d_model":false,"image_url":null,"decayed_at":null,"tle_current":{"epoch":"2026-05-25T03:18:54.109728Z","epoch_age_seconds":57056,"freshness":"FRESH","line1":"1 63084U 25037H   26145.13812627  .00002948  00000+0  25471-3 0  9990","line2":"2 63084  70.0004 161.6837 0003868 267.2156  92.8560 14.98337631 69910","mean_motion":14.98337631,"eccentricity":0.0003868,"inclination_deg":70.0004,"raan_deg":161.6837,"arg_perigee_deg":267.2156,"mean_anomaly_deg":92.856,"bstar":0.00025471,"rev_number":6991,"period_min":96.106509654899,"perigee_km":569.3439673241,"apogee_km":574.72061828901,"semimajor_km":6950.1692928066,"source":"CELESTRAK","updated_at":"2026-05-25T13:38:19.878216Z"}}}